[[{"header":{"parameterUnit":"m.s-1","parameterCategory":1,"la1":30.2991,"la2":30.254,"lo1":-89.0895,"lo2":-89.0444,"dy":0.0017,"dx":0.0017,"nx":28,"ny":28,"refTime":"2024-06-18T09:00:00:Z","depth":0,"parameterNumber":2,"parameterNumberName":"U-component_of_WINDS"},"data":[0,0,0,0,0,0,0,0,0,0,0,0,0,0,0,0,0,0,0,0,0,0,0,0,0,0,0,0,0,0,0,0,0,0,0,0,0,0,0,0,0,0,0,0,0,0,0,0,0,0,0,0,0,0,0,0,0,0,-9.2545,-9.2545,0,-9.2568,-9.2569,-9.2569,-9.2385,-9.238,-9.2375,-9.237,-9.2392,-9.2397,-9.2402,0,0,0,0,0,0,0,0,0,0,0,0,0,-9.2339,-9.2344,-9.2545,-9.2545,-9.2546,-9.2568,-9.2569,-9.2569,-9.2386,-9.238,-9.2373,-9.2368,-9.239,-9.2396,-9.2402,0,0,0,0,0,0,0,0,0,0,0,0,0,-9.2402,-9.2346,-9.2545,-9.2457,-9.245,-9.2568,-9.2569,-9.2569,-9.2387,-9.238,-9.2372,-9.2365,-9.2388,-9.2395,-9.2403,-9.2607,0,0,-9.2428,-9.2431,0,0,0,0,0,0,0,0,-9.2399,-9.241,-9.247,-9.2463,-9.2455,-9.2466,-9.2504,-9.2582,-9.2389,-9.2411,-9.237,-9.2361,-9.2422,-9.2427,-9.2448,-9.2608,-9.2609,-9.2429,-9.2434,-9.2437,-9.2439,0,0,0,0,0,0,0,-9.2395,-9.2408,-9.2554,-9.2471,-9.2462,-9.2416,-9.2416,-9.2518,-9.2459,-9.2408,-9.2395,-9.2401,-9.2417,-9.2441,-9.2447,-9.2609,-9.2428,-9.2436,-9.244,-9.2444,-9.2934,-9.2942,0,0,0,0,0,0,-9.2403,-9.2406,-9.2553,-9.2555,-9.2408,-9.2426,-9.2426,-9.247,-9.2458,-9.2449,-9.2407,-9.2392,-9.2431,-9.2438,-9.2447,-9.2682,-9.2437,-9.2444,-9.2449,-9.2926,-9.2936,-9.2945,0,0,0,0,0,0,-9.2399,-9.2418,-9.2552,-9.2477,-9.249,-9.2437,-9.2488,-9.2475,-9.2498,-9.2457,-9.2445,-9.2443,-9.2425,-9.2436,-9.2568,-9.268,-9.2448,-9.2455,-9.2916,-9.2929,-9.294,-9.3155,0,0,0,0,0,0,-9.2394,-9.2417,-9.2495,-9.248,-9.2495,-9.2674,-9.2495,-9.2481,-9.2513,-9.2493,-9.2487,-9.2478,-9.242,-9.2557,-9.2576,-9.2687,-9.2462,-9.2906,-9.2922,-9.2936,-9.3137,-9.3173,-9.3203,0,0,0,0,0,-9.2387,-9.2554,-9.25,-9.2518,-9.2591,-9.2681,-9.2689,-9.2619,-9.2523,-9.2599,-9.2573,-9.2479,-9.2666,-9.2572,-9.2592,-9.2707,-9.2898,-9.2917,-9.2935,-9.3122,-9.3166,-9.3202,0,0,0,0,0,0,-9.2583,-9.2551,-9.249,-9.2657,-9.2674,-9.265,-9.2744,-9.2668,-9.2711,-9.2691,-9.2602,-9.2602,-9.2748,-9.2741,-9.2637,-9.2902,-9.2765,-9.2788,-9.29,-9.2941,-9.2974,-9.297,-9.2468,0,0,0,0,0,-9.2646,-9.2723,-9.269,-9.2841,-9.2852,-9.2798,-9.2834,-9.2779,-9.2792,-9.2797,-9.278,-9.2795,-9.2857,-9.2899,-9.2954,-9.3137,-9.3131,-9.3226,-9.3259,-9.3286,-9.3306,-9.3399,-9.344,-9.3005,-9.3005,-9.3005,0,0,-9.2775,-9.2768,-9.2821,-9.288,-9.2886,-9.2966,-9.2804,-9.2896,-9.2954,-9.2811,-9.2933,-9.2922,-9.2933,-9.3091,-9.3159,-9.3089,-9.3425,-9.331,-9.3332,-9.3336,-9.3422,-9.3463,-9.35,-9.3018,-9.3016,-9.3014,0,0,-9.3052,-9.3056,-9.318,-9.319,-9.3201,-9.3164,-9.3194,-9.3183,-9.3169,-9.3292,-9.3185,-9.3253,-9.3363,-9.3374,-9.3394,-9.3677,-9.3591,-9.3698,-9.3868,-9.396,-9.3994,-9.4024,-9.4121,-9.4157,-9.3718,-9.3719,-9.3719,0,-9.3211,-9.3328,-9.3253,-9.3352,-9.338,-9.3256,-9.338,-9.3393,-9.3422,-9.3444,-9.3366,-9.3499,-9.3498,-9.3655,-9.3724,-9.3746,-9.3776,-9.3695,-9.3995,-9.4024,-9.4051,-9.4143,-9.418,-9.3731,-9.373,-9.3729,-9.3728,0,-9.3522,-9.3605,-9.3704,-9.3735,-9.3775,-9.3887,-9.3827,-9.3876,-9.3819,-9.379,-9.3915,-9.391,-9.396,-9.3994,-9.3939,-9.4144,-9.4099,-9.4011,-9.387,-9.4106,-9.419,-9.4225,-9.3749,-9.3745,-9.3741,-9.3738,0,0,-9.3919,-9.3908,-9.3945,-9.3957,-9.3962,-9.4023,-9.4129,-9.4179,-9.4221,-9.4247,-9.4331,-9.4427,-9.4344,-9.4368,-9.4313,-9.4394,-9.4614,-9.4294,-9.4293,-9.435,-9.4836,-9.49,-9.4942,-9.456,-9.4566,-9.4571,-9.4833,0,-9.4185,-9.4364,-9.4301,-9.4483,-9.4557,-9.4442,-9.4533,-9.4545,-9.4522,-9.458,-9.4554,-9.4621,-9.4509,-9.4522,-9.4598,-9.4572,-9.471,-9.4552,-9.4634,-9.4638,-9.463,-9.4986,-9.5054,-9.5302,-9.4866,-9.4872,-9.4876,0,-9.4519,-9.4558,-9.4748,-9.4738,-9.4767,-9.4851,-9.489,-9.4949,-9.496,-9.4937,-9.4964,-9.4892,-9.4993,-9.4857,-9.4994,-9.4888,-9.4919,-9.4911,-9.4919,-9.492,-9.4768,-9.4993,-9.5379,-9.5415,-9.4928,-9.4924,-9.492,0,-9.4784,-9.4885,-9.501,-9.5025,-9.5018,-9.5078,-9.5078,-9.5082,-9.5116,-9.5151,-9.5172,-9.522,-9.5244,-9.5282,-9.5224,-9.5131,-9.5369,-9.5228,-9.535,-9.5351,-9.5401,-9.5398,-9.5793,-9.5429,-9.5428,-9.5428,-9.5427,0,-9.5086,-9.5206,-9.5129,-9.5206,-9.5337,-9.5263,-9.5394,-9.538,-9.5385,-9.5456,-9.5361,-9.543,-9.5351,-9.5412,-9.5368,-9.5486,-9.55,-9.5482,-9.5468,-9.5488,-9.549,-9.5503,-9.5482,-9.5437,-9.5435,-9.5433,-9.5432,0,-9.5402,-9.5356,-9.5485,-9.5468,-9.5467,-9.5564,-9.5548,-9.5618,-9.5589,-9.5681,-9.5698,-9.5651,-9.5718,-9.5665,-9.5732,-9.5702,-9.5857,-9.5821,-9.5853,-9.5841,-9.5964,-9.5952,-9.6379,-9.6429,-9.6037,-9.6041,-9.6044,0,-9.5595,-9.5685,-9.5678,-9.5719,-9.5725,-9.5794,-9.5827,-9.5759,-9.5798,-9.5818,-9.5885,-9.5945,-9.5987,-9.61,-9.6072,-9.6121,-9.6083,-9.6229,-9.6089,-9.6106,-9.608,-9.6073,-9.608,-9.6256,-9.6261,-9.6264,-9.6267,0,-9.5942,-9.5914,-9.5968,-9.6014,-9.6057,-9.609,-9.6115,-9.6154,-9.6084,-9.6133,-9.6201,-9.6235,-9.6302,-9.6361,-9.6402,-9.64,-9.6322,-9.6313,-9.6342,-9.6361,-9.6375,-9.6365,-9.5925,-9.6302,-9.6298,-9.6296,-9.6294,-9.6293,-9.6199,-9.6272,-9.6278,-9.6341,-9.6353,-9.6378,-9.6442,-9.6421,-9.6477,-9.6526,-9.6483,-9.6564,-9.6572,-9.6618,-9.6626,-9.6688,-9.6627,-9.6671,-9.6682,-9.6693,-9.6708,-9.6369,-9.6695,-9.6694,-9.6693,-9.6692,-9.6692,0,-9.6536,-9.6535,-9.6594,-9.6631,-9.668,-9.6605,-9.6629,-9.6674,-9.6747,-9.6762,-9.6807,-9.6884,-9.6941,-9.6918,-9.6968,-9.7021,-9.6987,-9.7036,-9.7029,-9.703,-9.6762,-9.6729,-9.7063,-9.7063,-9.7063,-9.7063,-9.7063,-9.7063,-9.6717,-9.6836,-9.681,-9.6934,-9.6931,-9.701,-9.703,-9.7052,-9.7063,-9.7154,-9.7201,-9.7186,-9.7185,-9.7235,-9.7283,-9.7275,-9.7296,-9.7358,-9.7337,-9.7086,-9.7049,-9.7014,-9.6982,-9.7364,-9.7365,-9.7598,-9.7601,-9.7602]},{"header":{"parameterUnit":"m.s-1","parameterCategory":1,"la1":30.2991,"la2":30.254,"lo1":-89.0895,"lo2":-89.0444,"dy":0.0017,"dx":0.0017,"nx":28,"ny":28,"refTime":"2024-06-18T09:00:00:Z","depth":0,"parameterNumber":3,"parameterNumberName":"V-component_of_WINDS"},"data":[0,0,0,0,0,0,0,0,0,0,0,0,0,0,0,0,0,0,0,0,0,0,0,0,0,0,0,0,0,0,0,0,0,0,0,0,0,0,0,0,0,0,0,0,0,0,0,0,0,0,0,0,0,0,0,0,0,0,1.9053,1.9053,0,1.9085,1.9085,1.9086,1.9087,1.9087,1.9086,1.9086,1.9116,1.9117,1.9119,0,0,0,0,0,0,0,0,0,0,0,0,0,1.8993,1.8994,1.9053,1.9053,1.9054,1.9085,1.9085,1.9086,1.9087,1.9087,1.9086,1.9086,1.9116,1.9117,1.9119,0,0,0,0,0,0,0,0,0,0,0,0,0,1.9021,1.8994,1.9053,1.9058,1.9059,1.9085,1.9085,1.9086,1.9087,1.9087,1.9086,1.9086,1.9115,1.9117,1.9119,1.9141,0,0,1.9124,1.9125,0,0,0,0,0,0,0,0,1.9019,1.9023,1.9057,1.9058,1.9059,1.9082,1.9075,1.9104,1.9087,1.9076,1.9086,1.9085,1.9105,1.9108,1.9115,1.9142,1.9143,1.9124,1.9125,1.9126,1.9127,0,0,0,0,0,0,0,1.9018,1.9022,1.9066,1.9058,1.9059,1.9059,1.9062,1.9081,1.9093,1.9077,1.9078,1.9081,1.9105,1.9113,1.9115,1.9144,1.9124,1.9126,1.9127,1.9128,1.9192,1.9193,0,0,0,0,0,0,1.9015,1.902,1.9065,1.9066,1.9038,1.9061,1.9064,1.9075,1.9093,1.9096,1.9082,1.9081,1.911,1.9113,1.9116,1.9144,1.9126,1.9128,1.9129,1.9192,1.9192,1.9193,0,0,0,0,0,0,1.9013,1.9019,1.9063,1.9044,1.9049,1.9062,1.9074,1.9076,1.9083,1.9097,1.9099,1.9087,1.911,1.9114,1.9135,1.9145,1.9128,1.913,1.9191,1.9192,1.9193,1.9198,0,0,0,0,0,0,1.9012,1.9018,1.9026,1.9044,1.905,1.9081,1.9074,1.9077,1.9087,1.9086,1.9102,1.9104,1.911,1.9133,1.9137,1.9147,1.9131,1.919,1.9191,1.9192,1.9197,1.92,1.9201,0,0,0,0,0,1.901,1.9026,1.9027,1.9032,1.9061,1.9082,1.9086,1.9092,1.9087,1.9096,1.9105,1.9104,1.9144,1.9135,1.914,1.915,1.9189,1.9191,1.9192,1.9197,1.9199,1.9201,0,0,0,0,0,0,1.9008,1.9028,1.9029,1.9052,1.9066,1.9082,1.9093,1.9095,1.9109,1.9108,1.9115,1.9119,1.914,1.9147,1.9137,1.9173,1.9166,1.9168,1.9167,1.917,1.9172,1.9169,1.9133,0,0,0,0,0,1.901,1.9026,1.9043,1.9061,1.9068,1.908,1.9089,1.9093,1.9107,1.9112,1.9123,1.9136,1.9151,1.9161,1.9176,1.9199,1.9203,1.9209,1.9211,1.9213,1.9214,1.9228,1.9231,1.9198,1.9198,1.9198,0,0,1.9015,1.9028,1.9037,1.9061,1.9072,1.9088,1.9084,1.9101,1.9113,1.9115,1.9135,1.9144,1.9159,1.9182,1.9192,1.9188,1.9225,1.9215,1.9216,1.9217,1.923,1.9233,1.9236,1.9199,1.9199,1.9199,0,0,1.9032,1.9043,1.9061,1.9072,1.909,1.9098,1.9102,1.9119,1.9125,1.9147,1.9149,1.9163,1.9189,1.9201,1.921,1.9234,1.9234,1.9239,1.9249,1.9262,1.9265,1.9267,1.9276,1.9279,1.9241,1.9241,1.9241,0,1.9035,1.906,1.9069,1.9087,1.9097,1.9102,1.9119,1.913,1.9151,1.9158,1.9154,1.9189,1.9199,1.9225,1.9231,1.9238,1.9243,1.9236,1.9264,1.9266,1.9268,1.9277,1.928,1.9241,1.9241,1.9241,1.9241,0,1.9064,1.9081,1.9093,1.9115,1.9127,1.9145,1.9156,1.9167,1.9171,1.918,1.9202,1.9215,1.9234,1.924,1.9244,1.9267,1.9265,1.9262,1.9255,1.9272,1.928,1.9283,1.9242,1.9242,1.9242,1.9241,0,0,1.9078,1.9107,1.9111,1.9122,1.9142,1.9156,1.9174,1.9193,1.9203,1.9218,1.9234,1.9257,1.9256,1.9266,1.9271,1.9283,1.9302,1.928,1.928,1.9283,1.933,1.9331,1.9334,1.9303,1.9304,1.9304,1.9328,0,1.9098,1.9131,1.914,1.9168,1.9185,1.919,1.9206,1.9221,1.923,1.9245,1.9255,1.9272,1.9269,1.9275,1.9287,1.9297,1.9312,1.9296,1.9317,1.9318,1.9312,1.9339,1.934,1.9362,1.9332,1.9332,1.9333,0,1.9124,1.9141,1.9171,1.9192,1.9199,1.9213,1.9232,1.9247,1.9264,1.927,1.9283,1.9288,1.9307,1.93,1.9327,1.9316,1.9325,1.9332,1.9333,1.9334,1.9325,1.934,1.9369,1.9372,1.9338,1.9337,1.9337,0,1.9132,1.9162,1.9185,1.9194,1.9218,1.9228,1.9239,1.9255,1.9267,1.9284,1.9291,1.931,1.932,1.9334,1.9344,1.9337,1.937,1.9363,1.9375,1.9375,1.9381,1.938,1.941,1.9388,1.9388,1.9388,1.9388,0,1.9152,1.917,1.9189,1.9202,1.9223,1.9235,1.9255,1.9266,1.9281,1.9297,1.9302,1.9317,1.9329,1.9345,1.9353,1.9374,1.9379,1.9384,1.9386,1.9383,1.9382,1.9389,1.9387,1.9389,1.9389,1.9388,1.9388,0,1.9163,1.9177,1.9202,1.9224,1.923,1.9244,1.9263,1.9276,1.9287,1.9307,1.9312,1.9328,1.9347,1.9359,1.9383,1.9388,1.9412,1.9413,1.9407,1.9407,1.9419,1.9417,1.9453,1.9459,1.9433,1.9433,1.9434,0,1.9175,1.9189,1.9214,1.9225,1.9236,1.9255,1.9267,1.928,1.9292,1.9314,1.9325,1.9346,1.9363,1.9394,1.9407,1.9426,1.9427,1.9439,1.943,1.9428,1.9428,1.9426,1.9428,1.944,1.944,1.944,1.9441,0,1.9194,1.9201,1.9219,1.924,1.9256,1.9273,1.9289,1.9298,1.9314,1.9328,1.9349,1.9362,1.9388,1.9408,1.9429,1.9439,1.9442,1.9444,1.9447,1.9444,1.944,1.9443,1.941,1.9442,1.9442,1.9442,1.9442,1.9442,1.9206,1.922,1.924,1.926,1.9275,1.9291,1.9305,1.9318,1.9336,1.9359,1.9366,1.9388,1.9406,1.9434,1.9445,1.9463,1.9461,1.9466,1.9467,1.9468,1.9469,1.9438,1.9466,1.9466,1.9466,1.9466,1.9466,0,1.9226,1.9239,1.9259,1.9283,1.9299,1.9303,1.9322,1.9335,1.9355,1.9373,1.939,1.9415,1.9435,1.9451,1.9471,1.9482,1.9484,1.9487,1.9486,1.9489,1.9469,1.9464,1.9485,1.9485,1.9485,1.9485,1.9485,1.9485,1.9238,1.9262,1.9271,1.9302,1.9316,1.9338,1.9349,1.9364,1.9378,1.9406,1.9424,1.9434,1.9451,1.9474,1.9492,1.9497,1.9504,1.9506,1.9511,1.9492,1.949,1.9488,1.9483,1.9508,1.9508,1.9529,1.9529,1.9529]}]]